map of JHB home
Great Circle Mapper logo
JHB - Airport
Location
City:  Johor Bahru, Johor, Malaysia
Near (Alt.):Senai
Name:Senai International Airport
Old (Alt.):Sultan Ismail International Airport
ICAO / IATA:WMKJ / JHB

Details
Type:Airport (Aerodrome, Airfield)
Use:Public/Civil, International (customs port of entry)
Latitude:138'29"N (1.641308)
Longitude:10340'11"E (103.669619)
Datum:WGS 1984
Elevation:135 ft (41 m)
Variation:0.20E (WMM2015 magnetic declination)
-0.00 annual change
Runways:1
Longest:11004 × 150 ft (3354 × 45.5 m), paved

Time
Time Zone:UTC+8
Local Time:

Weather
METAR:WMKJ 011700Z 00000KT 9999 FEW023 BKN130 25/24 Q1013
TAF:WMKJ 010500Z 0106/0206 15005KT 9999 FEW017CB SCT018 BKN280
TEMPO 0108/0112 4000 TSRA FEW017CB SCT020

Related Locations
Nearby:
Farthest:SEMO: 12387 mi / 19935 km
Montalvo [El Carmen], R, EC

Find:

   beyond  
but within

Other Information
Maps:
NOTAMs:
Links:
Sources:

  
flag of Malaysia   

Sectional Chart

Flight Planning
at skyvector.com

Satellite Image

Google Maps Satellite view

 

Copyright © 2004-2015 Karl L. Swartz. All rights reserved.
The Great Circle Mapper name and logo are trademarks of the Great Circle Mapper.
All other trademarks mentioned herein belong to their respective owners.
Please see credits for attibutions and further copyright information.

  Follow gcmap on Facebook Follow gcmap on Twitter Follow gcmap on Google+

hCard Microformat

Geo Microformat